Location: Unspecified
(34.5413°N, 0.0000°E)
Time: 13:51:44
(UTC+00:00)

Cosmos 2297 Rocket - Visible Passes

Search period start: 04 April 2026 00:00
Search period end: 14 April 2026 00:00
Orbit: 839 x 842 km, 71.0° (Epoch: 29 March)

Date Brightness Start Highest point End Pass type
(mag) Time Alt. Az. Time Alt. Az. Time Alt. Az.
4 Apr 4.8 19:08:33 10° NW 19:12:37 21° W 19:16:41 10° SSW visible
5 Apr 4.8 18:52:56 10° NW 18:57:11 22° W 19:01:24 10° SSW visible
11 Apr 5.4 04:58:02 10° ESE 05:00:00 12° E 05:01:58 10° ENE visible
12 Apr 5.4 04:43:13 10° ESE 04:44:34 11° E 04:45:55 10° E visible
